カタログに戻る

CZ-6A DEB

運用中PO
NORAD 54968·DEBRIS·🇨🇳 China

打ち上げ Nov 11, 2022 から Taiyuan Satellite Launch Center

Loading…

次のパス (今後24時間)

TLE

最新Source: Space-Track

元期: Sep 14, 2026, 16:03 UTC

1 54968U 22151TH  26257.66919134  .00007616  00000-0  10910-2 0  9997
2 54968  98.6275 331.5578 0064970 359.5084   0.6049 14.75426579203513

AllMySatでCZ-6A DEBをリアルタイム追跡

Download on the App Store